Simultaneous Nadir Overpasses (SNOs) Predictions

Prediction of SNOs between METOP-A and TERRA Satellite Orbit:

Table of predicted SNOs for the next 14.0 days since TLE Epoch: 6/18/2021
Index Date (METOP-A) Time (METOP-A) Lat,Lon (METOP-A) SZA (METOP-A ) Date (TERRA) Time (TERRA) Lat,Lon (TERRA) SZA (TERRA ) Distance(km) Time Diff (sec)
1 06/18/2021 19:30:18 81.31, -66.49 60.65 06/18/2021 19:30:44 81.32, -66.34 60.69 2.89 26
2 06/18/2021 20:20:58 -81.30, 101.09 119.33 06/18/2021 20:20:11 -81.31, 101.21 119.33 2.76 47
3 06/21/2021 15:04:39 81.30, 0.10 60.63 06/21/2021 15:04:57 81.31, -0.03 60.63 2.74 18
4 06/21/2021 15:55:20 -81.30, 167.31 119.38 06/21/2021 15:54:25 -81.29, 167.17 119.44 2.75 55
5 06/24/2021 10:39:01 81.30, 66.29 60.63 06/24/2021 10:39:10 81.30, 66.25 60.63 0.62 9
6 06/24/2021 11:29:41 -81.29,-126.11 119.35 06/24/2021 11:28:37 -81.30,-126.15 119.38 1.25 64
7 06/27/2021 05:22:43 -81.33, -35.56 119.39 06/27/2021 05:23:57 -81.27, -35.53 119.39 7.07 74
8 06/27/2021 06:13:22 81.31, 132.46 60.68 06/27/2021 06:13:22 81.29, 132.49 60.67 1.86 0
9 06/27/2021 07:04:02 -81.30, -59.92 119.30 06/27/2021 07:02:49 -81.29, -59.87 119.33 0.95 73
10 06/30/2021 00:57:03 -81.31, 31.38 119.21 06/30/2021 00:58:08 -81.30, 31.45 119.18 1.63 65



Historial Predications of SNOs between METOP-A and TERRA
